Meteo pe oră la Dagda

Astăzi, 17 Aprilie, Sâmbătă

Timp Temperatura Precipitaţii Vânt Presiune Umiditate
00:00 +8°C° 0 mm 4 m/s 749 mmHg 84%
01:00 +8°C° 0 mm 4 m/s 749 mmHg 85%
02:00 +8°C° 0 mm 4 m/s 749 mmHg 86%
03:00 +7°C° 0 mm 4 m/s 749 mmHg 87%
04:00 +6°C° 0 mm 4 m/s 749 mmHg 88%
05:00 +7°C° 0 mm 3 m/s 749 mmHg 89%
06:00 +7°C° 0 mm 3 m/s 749 mmHg 87%
07:00 +6°C° 0 mm 4 m/s 749 mmHg 85%
08:00 +7°C° 0 mm 4 m/s 750 mmHg 83%
09:00 +8°C° 0 mm 3 m/s 750 mmHg 84%
10:00 +8°C° 0 mm 3 m/s 750 mmHg 84%
11:00 +9°C° 0 mm 3 m/s 750 mmHg 85%
12:00 +10°C° 0 mm 3 m/s 751 mmHg 80%
13:00 +11°C° 0 mm 3 m/s 751 mmHg 75%
14:00 +12°C° 0 mm 4 m/s 751 mmHg 70%
15:00 +12°C° 0 mm 3 m/s 751 mmHg 72%
16:00 +12°C° 0 mm 3 m/s 751 mmHg 73%
17:00 +11°C° 0 mm 3 m/s 751 mmHg 74%
18:00 +11°C° 0 mm 3 m/s 751 mmHg 76%
19:00 +11°C° 0 mm 3 m/s 751 mmHg 79%
20:00 +10°C° 0 mm 3 m/s 751 mmHg 81%
21:00 +10°C° 0 mm 3 m/s 751 mmHg 82%
22:00 +10°C° 0 mm 3 m/s 751 mmHg 83%
23:00 +10°C° 0 mm 3 m/s 750 mmHg 84%

Mâine, 18 Aprilie, Duminică

Timp Temperatura Precipitaţii Vânt Presiune Umiditate
00:00 +9°C° 0 mm 3 m/s 750 mmHg 86%
01:00 +8°C° 0 mm 3 m/s 750 mmHg 87%
02:00 +7°C° 0 mm 3 m/s 750 mmHg 89%
03:00 +7°C° 0 mm 3 m/s 750 mmHg 87%
04:00 +5°C° 0 mm 3 m/s 750 mmHg 86%
05:00 +5°C° 0 mm 3 m/s 750 mmHg 84%
06:00 +5°C° 0 mm 4 m/s 750 mmHg 78%
07:00 +6°C° 0 mm 4 m/s 751 mmHg 72%
08:00 +7°C° 0 mm 4 m/s 751 mmHg 66%
09:00 +8°C° 0 mm 4 m/s 751 mmHg 61%
10:00 +11°C° 0 mm 4 m/s 751 mmHg 56%
11:00 +12°C° 0 mm 4 m/s 751 mmHg 51%
12:00 +13°C° 0 mm 4 m/s 751 mmHg 48%
13:00 +14°C° 0 mm 5 m/s 751 mmHg 45%
14:00 +14°C° 0 mm 5 m/s 751 mmHg 43%
15:00 +14°C° 0 mm 4 m/s 751 mmHg 44%
16:00 +14°C° 0 mm 4 m/s 751 mmHg 45%
17:00 +14°C° 0 mm 3 m/s 750 mmHg 47%
18:00 +12°C° 0 mm 3 m/s 751 mmHg 53%
19:00 +10°C° 0 mm 2 m/s 751 mmHg 60%
20:00 +9°C° 0 mm 2 m/s 751 mmHg 66%
21:00 +9°C° 0 mm 2 m/s 751 mmHg 69%
22:00 +8°C° 0 mm 2 m/s 751 mmHg 71%
23:00 +9°C° 0 mm 1 m/s 751 mmHg 74%

Poimâine, 19 Aprilie, Luni

Timp Temperatura Precipitaţii Vânt Presiune Umiditate
00:00 +7°C° 0 mm 2 m/s 752 mmHg 77%
01:00 +6°C° 0 mm 2 m/s 752 mmHg 80%
02:00 +6°C° 0 mm 2 m/s 752 mmHg 84%
03:00 +5°C° 0 mm 2 m/s 752 mmHg 86%
04:00 +5°C° 0 mm 2 m/s 752 mmHg 88%
05:00 +4°C° 0 mm 2 m/s 752 mmHg 90%
06:00 +4°C° 0 mm 3 m/s 752 mmHg 83%
07:00 +6°C° 0 mm 4 m/s 752 mmHg 77%
08:00 +7°C° 0 mm 4 m/s 752 mmHg 70%
09:00 +8°C° 0 mm 4 m/s 752 mmHg 67%
10:00 +8°C° 0 mm 4 m/s 752 mmHg 64%
11:00 +10°C° 0 mm 4 m/s 752 mmHg 61%
12:00 +10°C° 0 mm 4 m/s 752 mmHg 61%
13:00 +10°C° 0 mm 3 m/s 752 mmHg 62%
14:00 +10°C° 0 mm 3 m/s 751 mmHg 62%
15:00 +10°C° 0 mm 3 m/s 751 mmHg 62%
16:00 +10°C° 0 mm 3 m/s 751 mmHg 63%
17:00 +11°C° 0 mm 3 m/s 751 mmHg 63%
18:00 +9°C° 0.1 mm 3 m/s 751 mmHg 68%
19:00 +8°C° 0.1 mm 2 m/s 750 mmHg 74%
20:00 +7°C° 0.1 mm 2 m/s 750 mmHg 79%
21:00 +7°C° 0.1 mm 2 m/s 750 mmHg 83%
22:00 +6°C° 0.1 mm 2 m/s 750 mmHg 86%
23:00 +6°C° 0.1 mm 2 m/s 750 mmHg 89%

20 Aprilie, Marţi

Timp Temperatura Precipitaţii Vânt Presiune Umiditate
00:00 +5°C° 0 mm 2 m/s 750 mmHg 89%
01:00 +5°C° 0 mm 2 m/s 749 mmHg 89%
02:00 +4°C° 0 mm 3 m/s 749 mmHg 89%
03:00 +4°C° 0 mm 3 m/s 749 mmHg 89%
04:00 +4°C° 0 mm 3 m/s 748 mmHg 89%
05:00 +4°C° 0 mm 3 m/s 748 mmHg 89%
06:00 +4°C° 0 mm 3 m/s 748 mmHg 89%
07:00 +4°C° 0 mm 3 m/s 747 mmHg 88%
08:00 +5°C° 0 mm 3 m/s 747 mmHg 87%
09:00 +5°C° 0.1 mm 3 m/s 747 mmHg 87%
10:00 +5°C° 0.1 mm 3 m/s 746 mmHg 87%
11:00 +5°C° 0.1 mm 3 m/s 746 mmHg 86%
12:00 +5°C° 0 mm 3 m/s 746 mmHg 82%
13:00 +7°C° 0 mm 3 m/s 745 mmHg 78%
14:00 +7°C° 0 mm 3 m/s 745 mmHg 74%
15:00 +8°C° 0 mm 3 m/s 744 mmHg 72%
16:00 +8°C° 0 mm 3 m/s 744 mmHg 70%
17:00 +8°C° 0 mm 3 m/s 743 mmHg 69%
18:00 +8°C° 0 mm 3 m/s 743 mmHg 70%
19:00 +7°C° 0 mm 3 m/s 742 mmHg 72%
20:00 +7°C° 0 mm 3 m/s 741 mmHg 74%
21:00 +5°C° 0 mm 3 m/s 740 mmHg 75%
22:00 +5°C° 0 mm 3 m/s 740 mmHg 76%
23:00 +5°C° 0 mm 4 m/s 739 mmHg 78%

21 Aprilie, Miercuri

Timp Temperatura Precipitaţii Vânt Presiune Umiditate
00:00 +4°C° 0.3 mm 4 m/s 738 mmHg 82%
01:00 +4°C° 0.3 mm 4 m/s 737 mmHg 87%
02:00 +3°C° 0.3 mm 4 m/s 736 mmHg 91%
03:00 +3°C° 1.1 mm 4 m/s 736 mmHg 93%
04:00 +1°C° 1.1 mm 4 m/s 735 mmHg 95%
05:00 +1°C° 1.1 mm 4 m/s 734 mmHg 96%
06:00 +1°C° 0.8 mm 4 m/s 734 mmHg 96%
07:00 0°C° 0.8 mm 4 m/s 734 mmHg 96%
08:00 0°C° 0.8 mm 4 m/s 733 mmHg 96%
09:00 0°C° 0.3 mm 4 m/s 733 mmHg 96%
10:00 0°C° 0.3 mm 4 m/s 733 mmHg 96%
11:00 0°C° 0.3 mm 4 m/s 733 mmHg 96%
12:00 +1°C° 0.1 mm 4 m/s 734 mmHg 96%
13:00 +1°C° 0.1 mm 4 m/s 734 mmHg 96%
14:00 +1°C° 0.1 mm 4 m/s 734 mmHg 96%
15:00 +1°C° 0.2 mm 4 m/s 735 mmHg 96%
16:00 +1°C° 0.2 mm 4 m/s 735 mmHg 96%
17:00 +1°C° 0.2 mm 4 m/s 735 mmHg 96%
18:00 +1°C° 0.1 mm 4 m/s 736 mmHg 94%
19:00 +1°C° 0.1 mm 4 m/s 736 mmHg 93%
20:00 +1°C° 0.1 mm 4 m/s 737 mmHg 91%
21:00 +2°C° 0 mm 3 m/s 737 mmHg 91%
22:00 +2°C° 0 mm 3 m/s 738 mmHg 90%
23:00 +3°C° 0 mm 2 m/s 738 mmHg 89%

22 Aprilie, Joi

Timp Temperatura Precipitaţii Vânt Presiune Umiditate
00:00 +2°C° 0 mm 2 m/s 739 mmHg 90%
01:00 +2°C° 0 mm 2 m/s 739 mmHg 90%
02:00 +2°C° 0 mm 2 m/s 740 mmHg 91%
03:00 +1°C° 0 mm 2 m/s 740 mmHg 92%
04:00 +1°C° 0 mm 2 m/s 741 mmHg 93%
05:00 +1°C° 0 mm 2 m/s 741 mmHg 94%
06:00 +2°C° 0 mm 2 m/s 742 mmHg 89%
07:00 +3°C° 0 mm 3 m/s 742 mmHg 84%
08:00 +4°C° 0 mm 3 m/s 743 mmHg 79%
09:00 +5°C° 0 mm 3 m/s 743 mmHg 72%
10:00 +8°C° 0 mm 3 m/s 744 mmHg 65%
11:00 +10°C° 0 mm 3 m/s 744 mmHg 58%
12:00 +11°C° 0 mm 3 m/s 745 mmHg 53%
13:00 +12°C° 0 mm 3 m/s 745 mmHg 49%
14:00 +13°C° 0 mm 3 m/s 745 mmHg 45%
15:00 +13°C° 0 mm 3 m/s 746 mmHg 48%
16:00 +13°C° 0 mm 3 m/s 746 mmHg 50%
17:00 +14°C° 0 mm 2 m/s 746 mmHg 52%
18:00 +12°C° 0 mm 2 m/s 747 mmHg 60%
19:00 +9°C° 0 mm 2 m/s 747 mmHg 68%
20:00 +8°C° 0 mm 2 m/s 747 mmHg 76%
21:00 +7°C° 0 mm 2 m/s 748 mmHg 77%
22:00 +8°C° 0 mm 1 m/s 748 mmHg 78%
23:00 +8°C° 0 mm 1 m/s 748 mmHg 80%
Arată mai mult

Formular de consimțământ

Meteoprog și furnizorii noștri de servicii pot stoca și accesa date personale, precum cookies, identificatori de dispozitiv sau alte tehnologii similare pe dispozitivul dumneavoastră și procesa astfel de date pentru a personaliza conținutul și reclamele, dar și pentru a oferi caracteristici de social media și pentru a analiza traficul.

  • Stocarea și/sau accesarea informațiilor pe dispozitivul dumneavoastră

    Cookies, identificatori de dispozitiv sau alte informații pot fi stocate sau accesate pe dispozitiv în scopurile indicate mai sus.

  • Reclame și conținut personalizat, evaluarea reclamelor și a conținutului, informații despre audiențe și dezvoltarea produselor

    Reclamele și conținutul pot fi personalizate pe baza unui profil. Pot fi adăugate date suplimentare pentru a personaliza mai bine reclamele și conținutul. Performanța reclamelor și conținutului poate fi măsurată. Pot fi obținute informații despre utilizatorii care au văzut reclamele și conținutul. Aceste date pot fi utilizate pentru a dezvolta sau îmbunătăți experiența utilizatorilor, sistemele și software-ul.

Dând clic pe ‘Sunt de acord’, permiteți utilizarea cookie-urilor menționate, a identificatorilor de dispozitiv, balizelor web sau altor tehnologii similare. Setările pot fi modificate din browser-ul dispozitivului dumneavoastră.

În anumite scopuri, interesele legitime pot prima asupra consimțământului. Puteți citi mai multe informații în acest sens în Politica privind Confidențialitatea Datelor și Cookie.